Temp
13 14 14 14 14 14 14 14 13 13 12 11 11 10 10 9 9 9 9 9 9 9 9 9 8 8 8 8 9 8 8 8 8 7 7 6 6 5 6 6 6 6 6
14 14 14 14 14 13 13 13 13 12 11 11 10 10 9 9 9 9 9 9 9 8 8 8 8 8 8 8 8 8 8 7 7 6 6 5 5 5 5 5 5 5 5
13 13 13 13 13 13 12 12 12 11 10 10 9 9 9 9 8 8 8 8 8 8 8 8 7 7 7 7 7 7 6 6 6 5 5 4 4 4 4 4 4 4 5
13 13 12 12 12 12 12 11 10 10 9 9 9 9 9 8 8 8 8 8 7 7 7 7 7 7 6 6 6 6 6 5 5 5 4 4 4 3 3 3 3 4 5
11 11 11 12 12 12 11 10 10 9 9 9 9 8 8 8 8 8 7 7 7 6 6 6 6 6 6 6 6 5 5 5 4 4 3 3 3 2 2 2 2 2 4
10 10 11 11 11 10 10 9 9 9 9 8 8 8 7 7 7 7 7 7 6 6 5 5 5 5 5 5 5 4 4 4 4 3 2 2 2 2 2 1 1 0 -1
10 10 10 10 9 9 9 9 8 8 8 8 7 7 7 7 7 7 7 6 6 5 5 5 4 4 4 4 4 4 4 3 3 3 3 2 2 2 1 1 1 0 0
10 9 9 9 9 8 8 8 8 8 7 7 7 7 7 7 7 6 6 6 5 5 5 4 4 4 4 4 4 4 3 3 3 3 2 2 2 1 1 1 0 -0 0
9 8 9 9 8 8 8 8 7 7 7 7 7 6 6 6 6 6 5 5 5 4 4 4 4 4 4 4 4 3 3 3 2 3 3 2 2 1 1 1 0 -0 -1
8 8 9 9 8 7 7 7 7 7 7 6 6 6 6 6 6 5 5 5 4 4 4 4 4 4 4 4 3 3 3 3 3 3 3 2 2 1 1 -0 -0 -1 -1
8 8 8 8 8 7 7 7 6 6 6 6 6 6 5 5 5 5 5 5 5 4 4 3 3 3 3 3 3 3 2 2 1 1 1 1 1 1 0 -1 -1 -2 -2
8 8 8 7 7 6 6 6 6 6 5 5 5 5 4 5 5 5 5 4 4 4 4 4 4 3 3 3 2 2 2 1 1 1 1 1 0 0 -0 -1 -2 -2 -2
8 8 7 7 7 6 6 5 5 5 4 3 3 3 3 4 4 4 4 4 4 3 4 3 3 3 2 2 2 2 1 1 1 1 0 0 -0 -1 -1 -2 -2 -3 -3
8 8 7 7 6 6 5 5 4 3 3 3 2 2 3 3 3 3 3 3 3 3 3 3 2 2 2 2 2 1 1 1 1 0 -0 -1 -1 -2 -3 -3 -4 -4 -4
7 7 6 5 5 5 5 4 4 4 4 3 3 3 3 2 4 4 4 3 3 3 2 2 1 1 1 1 1 1 1 1 0 0 -1 -1 -2 -2 -3 -4 -4 -5 -5
6 5 5 5 4 4 4 3 4 4 4 4 4 5 4 5 5 4 4 3 3 2 1 1 1 1 1 1 1 1 1 0 0 -0 -1 -1 -2 -3 -3 -4 -4 -4 -5
6 5 4 4 4 3 3 2 2 3 3 4 4 4 4 4 4 4 3 3 2 1 1 1 1 0 0 1 1 1 0 0 -0 -1 -1 -2 -2 -3 -3 -3 -4 -4 -5
5 5 4 4 3 3 2 2 2 1 1 1 2 3 3 3 3 3 2 1 1 0 0 1 0 0 1 0 1 0 0 -0 -1 -1 -2 -2 -3 -3 -3 -3 -4 -5 -5
4 4 3 3 3 2 2 2 2 1 1 1 1 1 2 2 2 1 1 1 0 0 1 0 1 1 1 0 1 -0 -0 -1 -2 -2 -3 -3 -3 -3 -3 -4 -5 -5 -4
2 2 2 2 1 1 1 1 1 1 1 1 1 1 1 0 0 0 0 -0 0 0 1 1 1 0 0 0 -0 -1 -1 -2 -2 -3 -3 -3 -3 -4 -4 -5 -5 -6 -6
1 1 1 1 1 0 0 0 0 -0 0 1 1 0 -1 -1 -2 -0 1 0 0 0 0 0 0 0 0 -1 -1 -2 -2 -3 -3 -3 -4 -4 -4 -4 -4 -5 -5 -6 -6
-0 -0 -1 -1 -1 -1 -1 -1 -1 -1 -2 -2 -2 -2 -2 -2 -1 1 1 1 1 1 1 1 0 0 -1 -1 -2 -3 -3 -4 -4 -4 -4 -4 -4 -4 -5 -6 -6 -6 -7
-2 -2 -2 -2 -2 -2 -2 -2 -2 -2 -2 -3 -2 -2 -2 -0 0 0 0 1 0 0 0 0 -0 -1 -1 -2 -3 -4 -4 -5 -4 -5 -5 -5 -5 -5 -6 -6 -7 -7 -7
-1 -1 -1 -1 -1 -1 -2 -2 -2 -2 -2 -2 -1 -0 -0 -0 -0 0 0 0 0 0 0 -0 -1 -1 -2 -3 -4 -5 -5 -5 -5 -5 -5 -6 -6 -6 -6 -7 -7 -7 -7
-2 -2 -2 -2 -2 -1 -1 -1 -1 -1 -1 -1 -1 -1 -1 -1 -1 -1 -0 -0 -1 -1 -1 -1 -1 -2 -2 -3 -4 -5 -5 -5 -6 -6 -6 -6 -6 -6 -6 -7 -7 -7 -7
-2 -2 -2 -2 -2 -2 -2 -2 -2 -2 -2 -2 -2 -2 -2 -1 -1 -1 -1 -2 -2 -2 -1 -1 -2 -2 -3 -4 -4 -5 -6 -6 -6 -6 -6 -6 -6 -6 -6 -7 -6 -6 -6
Height
757 762 768 772 779 786 788 791 796 799 802 806 807 810 813 814 817 820 822 824 826 827 829 831 832 833 835 836 837 837 838 840 841 842 841 841 839 837 835 833 831 828 827
749 756 762 767 774 781 784 788 793 795 798 801 804 806 810 812 813 817 819 822 824 826 828 829 831 832 832 833 834 835 835 836 838 839 840 839 838 835 834 832 830 827 825
745 751 757 763 769 773 777 783 788 792 796 798 801 803 806 809 811 814 817 820 822 824 826 827 829 829 830 832 833 834 835 836 836 837 838 838 837 835 833 831 829 827 825
739 746 752 757 762 766 772 778 785 788 793 794 797 800 804 807 809 812 815 817 820 822 824 826 827 828 830 830 831 833 833 834 835 836 837 836 835 834 832 830 826 825 821
734 740 745 752 758 764 769 775 781 785 788 792 794 798 803 805 807 809 812 815 817 820 823 825 826 827 828 829 829 830 831 833 834 835 836 835 834 833 831 830 827 824 820
735 739 744 749 756 762 767 772 777 781 785 789 792 795 799 802 805 807 809 812 815 817 820 823 825 827 827 828 829 830 831 831 832 833 834 834 833 833 831 831 828 824 823
733 738 743 747 753 760 765 769 774 776 780 785 790 793 796 799 802 804 806 810 813 815 818 821 823 825 825 826 828 830 831 832 832 833 832 832 832 831 829 828 828 827 824
732 737 741 745 751 756 762 766 772 773 778 781 786 789 792 796 799 802 803 808 810 813 817 820 822 824 824 825 826 828 829 830 830 831 831 830 830 829 828 828 827 825 822
728 732 737 742 747 753 758 761 766 769 774 778 783 785 789 792 796 799 802 805 807 811 815 818 820 821 822 823 824 826 828 829 830 830 829 829 829 828 827 826 824 823 820
724 727 732 736 740 746 751 756 761 766 770 775 779 783 786 789 792 795 798 801 805 808 812 815 816 818 820 822 823 825 826 827 828 828 827 826 826 826 825 823 821 820 819
724 728 732 735 739 743 748 753 758 763 768 773 777 780 783 786 789 792 794 797 800 804 807 810 813 815 817 819 821 823 824 825 825 825 824 823 822 822 820 819 820 819 816
722 725 729 733 737 741 746 751 756 760 765 769 773 776 780 782 786 788 791 794 798 801 803 806 809 812 815 817 819 820 821 822 822 821 821 820 818 818 816 815 812 811 812
719 722 726 730 735 739 744 748 753 757 761 765 768 772 775 778 781 785 788 791 795 798 801 804 806 809 812 814 815 817 818 818 817 816 817 816 816 816 814 811 809 807 804
716 719 723 727 731 735 740 744 749 753 756 760 763 766 770 774 777 781 785 788 791 795 798 801 804 806 809 810 811 812 813 814 814 813 812 812 812 812 810 808 804 801 799
714 717 720 724 728 732 735 738 742 746 748 751 755 759 763 767 771 776 780 783 787 790 794 797 800 801 803 805 807 808 809 809 809 808 809 808 807 808 807 806 803 799 796
713 715 718 722 726 729 733 737 741 744 747 750 753 756 759 763 768 772 776 780 784 787 789 791 793 796 797 799 800 802 803 804 803 803 804 803 802 802 802 801 798 796 791
711 714 717 721 724 728 731 734 738 743 746 748 751 753 757 761 765 769 772 775 779 783 784 786 788 789 790 791 793 796 795 798 799 798 797 796 796 797 797 794 792 790 786
713 715 717 720 723 726 729 732 736 739 742 746 749 752 755 759 762 766 769 772 776 777 780 781 781 782 784 785 786 789 791 791 792 792 792 791 791 791 790 788 785 783 781
715 716 718 721 723 726 728 731 735 738 741 744 749 752 754 757 760 762 766 767 769 770 771 775 777 776 776 778 779 782 784 785 785 785 785 785 786 785 782 781 779 777 776
717 719 721 722 725 727 730 733 736 739 741 743 746 749 751 754 756 758 760 762 762 763 765 765 770 772 771 771 773 774 776 777 778 779 778 779 780 780 776 774 774 771 768
723 724 725 727 729 731 733 735 737 740 741 742 744 746 748 749 751 752 755 756 757 757 758 761 763 765 766 767 767 768 769 770 772 772 774 772 773 773 772 769 767 765 763
727 728 729 730 730 731 733 734 735 736 738 739 740 740 742 745 747 746 746 748 750 751 752 754 756 757 760 761 761 762 762 763 766 765 766 766 766 766 765 762 760 758 755
728 728 729 730 729 729 731 732 734 735 735 737 738 738 738 740 740 739 739 741 743 744 745 747 749 751 753 754 754 755 756 757 759 759 759 760 759 759 757 755 753 751 749
729 729 728 729 729 728 729 731 731 731 731 732 733 732 732 733 733 733 733 735 737 737 739 740 741 745 744 746 748 749 750 751 752 754 754 754 753 751 750 749 747 744 741
727 727 726 726 727 726 728 728 726 726 726 726 726 725 726 726 726 726 727 728 729 730 732 733 735 737 737 739 741 742 743 746 747 747 747 747 745 744 743 742 739 737 734
724 723 723 723 722 722 722 721 721 721 720 719 719 719 719 719 719 719 721 722 722 724 725 727 729 729 731 733 735 736 738 739 740 741 741 740 739 737 737 734 732 729 726
Wind_Speed
38 39 38 39 35 33 32 30 29 27 24 22 18 17 16 15 13 13 12 12 10 10 9 9 8 7 7 7 6 6 4 4 4 5 7 10 9 12 15 14 13 13 13
36 37 39 38 37 36 33 30 28 26 24 22 19 18 17 16 16 15 14 12 12 11 11 9 9 8 8 7 7 7 5 4 2 2 4 6 9 12 13 15 16 16 17
36 37 38 39 40 38 34 30 28 26 24 22 21 21 20 19 17 16 14 14 13 12 11 11 10 9 10 8 6 5 4 3 1 2 2 6 8 13 16 17 20 20 19
39 39 39 42 42 37 33 30 30 27 25 24 23 22 21 19 18 17 16 15 14 12 11 11 9 9 8 8 8 6 4 5 4 3 2 4 7 10 12 18 24 23 24
37 37 39 40 37 34 33 32 29 27 27 25 24 22 21 20 19 19 17 16 15 14 12 10 9 9 9 9 8 7 6 6 4 2 2 3 5 10 12 15 19 22 18
31 30 35 35 34 33 32 31 30 29 27 26 25 24 23 21 19 18 18 17 16 15 15 12 12 11 10 9 7 6 5 5 4 2 1 2 4 9 12 14 16 15 8
31 28 30 31 32 33 33 32 31 31 28 28 26 26 24 22 20 19 18 18 18 17 16 15 13 11 10 8 7 5 4 2 1 1 2 3 5 9 11 13 12 13 13
26 26 29 30 31 32 33 31 32 30 30 30 29 27 25 23 22 21 19 19 18 17 16 16 15 12 10 9 9 7 5 4 3 1 3 4 6 8 10 12 12 15 18
27 26 29 31 31 33 35 37 35 33 32 31 30 29 27 24 23 21 21 20 18 18 17 17 15 13 11 9 8 8 6 5 4 3 4 5 6 6 9 13 15 15 11
28 31 32 35 37 39 38 36 34 34 34 32 30 29 27 25 24 23 22 21 20 19 17 16 14 13 11 8 7 7 6 5 5 5 5 5 6 8 10 8 11 14 17
26 27 29 32 34 35 34 34 34 34 32 31 30 28 27 25 25 23 22 22 22 22 20 18 16 14 11 9 7 6 5 5 6 8 9 8 9 11 11 11 12 12 14
24 26 28 31 31 31 32 32 33 33 33 32 30 27 26 25 24 24 23 22 20 21 21 18 16 14 12 9 8 8 7 7 8 9 10 11 12 14 16 16 15 14 16
24 26 28 29 30 29 31 33 32 34 30 28 27 25 27 26 25 24 23 22 20 19 17 16 15 15 13 12 10 10 9 9 9 10 11 12 13 15 18 19 19 22 21
27 28 28 30 30 29 31 31 28 28 25 24 23 22 23 27 27 25 24 22 21 19 17 16 16 16 15 13 12 11 11 11 11 11 12 13 14 16 18 18 18 18 21
25 27 26 26 27 28 29 30 29 30 32 28 28 28 28 27 31 27 26 24 22 21 18 17 18 17 16 15 14 13 12 12 13 13 14 14 15 17 17 15 15 17 21
21 22 24 24 25 26 27 23 26 29 28 26 28 31 29 27 26 24 22 19 19 18 18 20 20 19 17 16 15 15 14 15 15 14 16 16 18 17 17 16 18 22 23
21 21 21 22 23 24 23 22 18 15 19 22 23 21 22 22 20 19 19 18 18 17 18 20 19 19 20 17 17 17 17 17 15 15 16 17 17 18 19 22 23 22 21
12 15 19 21 23 21 21 21 20 21 18 17 16 18 19 20 17 16 17 17 17 17 22 23 23 22 20 19 17 18 19 16 16 16 17 18 19 20 23 24 25 22 21
6 10 14 14 16 19 19 20 21 21 19 20 18 17 15 14 14 15 16 20 23 23 25 24 23 22 20 19 18 18 18 17 16 16 17 18 21 23 24 25 25 19 24
5 5 8 9 12 12 14 17 16 17 17 18 17 15 14 11 13 15 18 23 25 25 24 24 24 22 20 18 18 17 17 16 16 17 18 19 21 23 24 20 20 23 23
9 9 8 10 9 9 9 10 12 13 14 15 16 14 15 16 17 20 23 24 26 27 26 25 24 21 18 18 17 16 16 16 17 16 15 14 16 19 21 24 25 19 20
3 2 4 7 9 12 15 17 19 19 20 19 16 13 13 15 20 24 25 25 25 26 25 23 22 19 18 17 17 17 17 17 17 16 16 17 21 23 23 20 23 28 26
2 2 2 4 4 4 5 7 7 8 9 11 12 14 16 21 24 26 26 26 24 23 22 21 21 20 18 18 18 18 17 17 15 15 16 18 21 21 21 23 25 24 23
5 5 6 7 7 8 10 12 13 13 14 16 20 22 23 25 25 25 25 26 24 24 23 22 21 20 19 19 16 15 15 15 14 16 17 20 23 24 24 24 26 27 28
12 14 15 17 18 18 20 20 21 22 23 24 25 25 25 25 25 26 25 24 24 23 22 22 22 20 19 19 16 17 18 16 17 17 19 21 23 24 25 26 28 28 28
14 15 16 17 18 19 19 21 22 23 23 24 24 24 24 24 24 24 23 23 22 21 21 21 21 20 19 20 20 19 19 18 18 17 18 20 22 24 27 27 29 28 28
Wind_Direction
203 206 207 204 204 208 204 201 203 204 205 207 199 193 192 187 188 187 186 186 189 179 184 192 185 188 193 193 193 185 202 241 270 309 344 340 358 7 1 358 0 357 352
203 205 207 202 202 204 203 205 208 204 202 201 192 187 190 187 183 184 183 188 180 179 175 182 175 177 178 182 182 176 177 177 198 300 342 8 355 6 14 14 14 8 8
200 200 200 202 199 201 201 201 202 201 197 190 189 187 188 187 181 182 182 176 177 183 187 183 181 188 164 166 177 165 141 148 104 132 354 348 8 18 6 3 1 358 2
198 197 197 199 201 200 198 199 198 196 193 189 189 189 189 185 181 177 175 176 178 180 182 187 184 180 178 167 154 147 143 133 129 92 49 15 7 8 1 359 355 356 354
188 189 194 201 201 199 196 195 194 194 193 191 186 186 185 182 180 178 178 177 176 173 173 175 170 160 154 154 155 146 145 136 139 115 52 355 359 359 3 350 347 347 5
187 187 196 199 198 197 195 192 192 191 190 189 186 184 183 184 184 181 180 179 178 174 168 163 158 157 153 148 144 142 143 136 122 125 62 4 347 348 350 357 354 353 345
191 190 194 194 193 196 195 190 190 189 186 187 187 187 185 184 184 184 182 183 180 177 177 174 168 173 171 165 161 155 149 154 100 52 1 350 342 353 345 346 347 340 320
187 190 195 194 193 193 190 191 195 189 189 188 190 189 188 189 189 187 183 183 181 181 185 184 185 179 174 172 170 168 166 166 170 289 339 343 337 340 338 331 326 324 322
191 191 196 198 193 192 193 197 194 190 191 193 192 190 192 190 191 187 186 184 182 185 189 192 195 187 180 177 175 175 177 179 196 276 303 313 316 320 325 323 327 325 322
199 203 203 200 198 195 199 197 195 196 196 194 193 197 196 194 192 191 190 186 184 186 190 192 193 191 187 190 189 190 201 211 236 289 315 322 323 323 326 324 315 304 313
211 208 204 203 204 205 202 200 198 197 197 196 196 197 200 200 194 193 192 192 193 191 193 192 193 195 196 201 210 221 233 237 270 294 311 317 322 324 331 334 330 316 305
212 210 209 209 208 209 206 202 201 199 197 196 197 196 200 200 200 197 198 201 200 199 199 201 200 202 206 214 229 242 247 245 263 287 301 314 324 326 329 329 324 316 308
211 209 210 212 212 212 206 203 197 199 193 191 193 193 197 199 201 204 201 201 201 203 205 204 206 209 217 227 246 246 247 250 270 281 294 306 317 319 320 320 316 316 317
207 211 210 208 205 207 206 201 193 191 191 191 192 194 196 202 205 202 203 203 204 205 203 204 209 215 226 244 244 248 247 254 264 278 288 299 306 310 316 323 315 319 323
208 207 204 199 195 196 199 197 197 203 201 195 199 197 194 200 208 206 206 205 207 209 207 211 215 222 229 237 246 251 251 256 260 275 282 287 292 301 312 321 316 312 306
203 197 195 193 193 194 195 197 208 218 216 216 220 220 214 217 210 207 209 214 218 213 205 215 218 222 230 240 251 256 260 264 269 279 284 281 288 296 299 301 300 301 295
210 202 199 199 198 194 194 193 190 208 223 224 225 223 219 209 203 206 209 212 213 201 208 218 224 231 242 249 253 262 267 270 278 275 281 283 287 289 288 291 297 298 291
218 218 209 207 206 200 197 196 190 176 175 183 196 199 195 198 203 203 206 198 206 210 224 233 237 243 250 256 265 269 272 275 268 279 283 284 282 279 285 287 291 294 294
241 215 213 210 208 207 202 199 196 192 190 194 193 198 201 206 210 213 214 215 218 223 230 238 245 249 255 262 267 270 274 271 272 276 278 278 275 272 277 285 286 278 297
115 169 185 187 180 188 197 201 203 205 205 197 196 195 189 190 207 224 223 224 233 239 242 242 250 253 255 259 262 265 262 259 263 272 276 280 282 278 279 278 291 291 288
89 89 116 129 137 150 163 178 188 194 201 207 209 204 222 233 237 235 240 239 240 243 246 250 255 256 256 255 255 256 258 264 270 274 271 268 281 282 286 292 296 289 293
74 140 196 208 216 220 223 225 223 222 222 225 231 235 229 229 238 244 249 249 249 251 254 254 254 254 254 255 259 259 268 263 265 270 278 282 284 289 292 290 287 290 288
355 290 243 225 221 215 208 212 212 217 225 237 246 244 237 236 245 251 256 258 257 257 253 250 251 251 253 259 265 265 258 256 269 280 280 283 286 282 285 289 286 282 277
288 270 258 258 253 248 242 236 235 238 235 234 239 244 254 262 262 261 262 263 263 261 257 251 248 252 255 254 265 257 251 256 263 273 277 281 284 286 287 286 282 279 278
293 285 279 274 271 268 265 259 255 255 255 255 256 260 265 266 265 266 265 264 263 261 256 250 248 252 249 249 258 256 248 253 265 273 278 281 284 287 288 283 280 279 277
308 303 295 288 282 278 273 271 271 269 266 266 267 266 267 269 269 270 270 269 266 262 257 251 252 255 251 240 264 252 246 253 263 270 275 278 279 282 284 281 283 280 279